TimeCET,TemperatureF,Dew PointF,Humidity,Sea Level PressureIn,VisibilityMPH,Wind Direction,Wind SpeedMPH,Gust SpeedMPH,PrecipitationIn,Events,Conditions,WindDirDegrees,DateUTC
12:00 AM,23,19,80,,9,SW,8.1,,,,Clear,220,2013-11-13 23:00:00
12:55 AM,23.0,19.4,86,30.27,-9999.0,SSW,10.4,-,N/A,,Clear,210,2013-11-13 23:55:00
1:00 AM,23,20,81,,9,SSW,10.4,,,,Clear,210,2013-11-14 00:00:00
1:55 AM,23.0,21.2,93,30.24,6.2,SSW,13.8,-,N/A,,Scattered Clouds,210,2013-11-14 00:55:00
2:55 AM,23.0,21.2,93,30.24,6.2,SW,15.0,-,N/A,,Mostly Cloudy,220,2013-11-14 01:55:00
3:00 AM,23,22,95,,6,SW,15.0,,,,Mostly Cloudy,220,2013-11-14 02:00:00
3:55 AM,23.0,23.0,100,30.21,6.2,SW,9.2,-,N/A,,Mostly Cloudy,230,2013-11-14 02:55:00
4:00 AM,23,22,96,,6,SW,9.2,,,,Mostly Cloudy,230,2013-11-14 03:00:00
4:55 AM,23.0,23.0,100,30.21,6.2,WSW,5.8,-,N/A,,Mostly Cloudy,250,2013-11-14 03:55:00
5:00 AM,23,22,95,,6,WSW,5.8,,,,Mostly Cloudy,250,2013-11-14 04:00:00
5:55 AM,23.0,21.2,93,30.18,6.2,SW,6.9,-,N/A,,Mostly Cloudy,230,2013-11-14 04:55:00
6:00 AM,22,21,94,,6,SW,6.9,,,,Mostly Cloudy,230,2013-11-14 05:00:00
6:55 AM,21.2,21.2,100,30.15,0.2,SW,5.8,-,N/A,Fog,Light Freezing Fog,220,2013-11-14 05:55:00
7:00 AM,22,21,92,,0,SW,5.8,,,Fog,Heavy Fog,220,2013-11-14 06:00:00
7:55 AM,19.4,17.6,93,30.15,6.2,ENE,8.1,-,N/A,,Mostly Cloudy,60,2013-11-14 06:55:00
8:00 AM,20,18,89,,6,ENE,8.1,,,Fog,Light Fog,60,2013-11-14 07:00:00
8:55 AM,21.2,17.6,86,30.12,6.2,SW,2.3,-,N/A,,Mostly Cloudy,220,2013-11-14 07:55:00
9:00 AM,20,17,82,,6,SW,2.3,,,,Partly Cloudy,220,2013-11-14 08:00:00
9:55 AM,23.0,19.4,86,30.12,6.2,SW,6.9,-,N/A,,Mostly Cloudy,220,2013-11-14 08:55:00
10:00 AM,23,19,79,,6,SW,6.9,,,,Scattered Clouds,220,2013-11-14 09:00:00
10:55 AM,23.0,19.4,86,30.09,0.4,SW,6.9,-,N/A,Fog,Light Freezing Fog,220,2013-11-14 09:55:00
11:00 AM,24,20,78,,0,SW,6.9,,,Fog,Heavy Fog,220,2013-11-14 10:00:00
11:55 AM,24.8,15.8,69,30.06,0.4,Variable,1.2,-,N/A,Fog,Light Freezing Fog,0,2013-11-14 10:55:00
12:00 PM,24,16,61,,0,,1.2,,,Fog,Heavy Fog,,2013-11-14 11:00:00
12:55 PM,24.8,19.4,80,30.01,0.1,Variable,3.5,-,N/A,Fog,Light Freezing Fog,0,2013-11-14 11:55:00
1:00 PM,25,19,70,,0,,3.5,,,Fog,Heavy Fog,,2013-11-14 12:00:00
1:55 PM,23.0,17.6,80,29.98,0.1,SSW,4.6,-,N/A,Fog,Light Freezing Fog,200,2013-11-14 12:55:00
2:00 PM,24,18,70,,0,SSW,4.6,,,Fog,Heavy Fog,200,2013-11-14 13:00:00
2:55 PM,21.2,17.6,86,29.95,0.1,SSW,5.8,-,N/A,Fog,Light Freezing Fog,200,2013-11-14 13:55:00
3:00 PM,22,18,79,,0,SSW,5.8,,,Fog,Heavy Fog,200,2013-11-14 14:00:00
3:55 PM,19.4,19.4,100,29.89,0.1,South,5.8,-,N/A,Fog,Light Freezing Fog,180,2013-11-14 14:55:00
4:00 PM,20,20,97,,0,South,5.8,,,Fog,Heavy Fog,180,2013-11-14 15:00:00
4:55 PM,17.6,17.6,100,29.86,0.1,SSW,6.9,-,N/A,Fog,Light Freezing Fog,210,2013-11-14 15:55:00
5:55 PM,14.0,10.4,86,29.86,0.1,Variable,3.5,-,N/A,Fog,Light Freezing Fog,0,2013-11-14 16:55:00
6:00 PM,14,11,80,,0,,3.5,,,Fog,Heavy Fog,,2013-11-14 17:00:00
6:55 PM,8.6,8.6,100,29.80,0.1,ENE,16.1,-,N/A,Fog-Snow,Light Snow,60,2013-11-14 17:55:00
7:00 PM,9,9,100,,0,ENE,16.1,,,Snow,Light Snow,60,2013-11-14 18:00:00
7:55 PM,6.8,5.0,92,29.77,0.1,ENE,16.1,-,N/A,Fog-Snow,Light Snow,60,2013-11-14 18:55:00
9:55 PM,5.0,5.0,100,29.71,0.0,NE,20.7,35.7,N/A,Fog-Snow,Light Snow,50,2013-11-14 20:55:00
10:00 PM,5,4,95,,0,NE,20.7,,,Snow,Light Snow,50,2013-11-14 21:00:00
10:55 PM,5.0,3.2,92,29.71,0.0,NE,20.7,32.2,N/A,Fog-Snow,Light Snow,50,2013-11-14 21:55:00
11:00 PM,5,4,93,,0,NE,20.7,,,Snow,Light Snow,50,2013-11-14 22:00:00
11:55 PM,5.0,5.0,100,29.68,0.0,NE,23.0,38.0,N/A,Fog-Snow,Light Snow,50,2013-11-14 22:55:00